Year,Month,Day,Hour,Minute,Value (Times are PST for temperature in C)
2018,06,10,00,00,11.40
2018,06,10,00,01,11.40
2018,06,10,00,02,11.40
2018,06,10,00,03,11.40
2018,06,10,00,04,11.40
2018,06,10,00,05,11.40
2018,06,10,00,06,11.40
2018,06,10,00,07,11.40
2018,06,10,00,08,11.30
2018,06,10,00,09,11.30
2018,06,10,00,10,11.30
2018,06,10,00,11,11.30
2018,06,10,00,12,11.30
2018,06,10,00,13,11.30
2018,06,10,00,14,11.30
2018,06,10,00,15,11.30
2018,06,10,00,16,11.30
2018,06,10,00,17,11.30
2018,06,10,00,18,11.20
2018,06,10,00,19,11.20
2018,06,10,00,20,11.20
2018,06,10,00,21,11.20
2018,06,10,00,22,11.20
2018,06,10,00,23,11.20
2018,06,10,00,24,11.20
2018,06,10,00,25,11.20
2018,06,10,00,26,11.30
2018,06,10,00,27,11.20
2018,06,10,00,28,11.20
2018,06,10,00,29,11.20
2018,06,10,00,30,11.20
2018,06,10,00,31,11.20
2018,06,10,00,32,11.20
2018,06,10,00,33,11.20
2018,06,10,00,34,11.20
2018,06,10,00,35,11.20
2018,06,10,00,36,11.20
2018,06,10,00,37,11.20
2018,06,10,00,38,11.20
2018,06,10,00,39,11.20
2018,06,10,00,40,11.20
2018,06,10,00,41,11.20
2018,06,10,00,42,11.20
2018,06,10,00,43,11.20
2018,06,10,00,44,11.20
2018,06,10,00,45,11.20
2018,06,10,00,46,11.20
2018,06,10,00,47,11.10
2018,06,10,00,48,11.20
2018,06,10,00,49,11.10
2018,06,10,00,50,11.20
2018,06,10,00,51,11.20
2018,06,10,00,52,11.20
2018,06,10,00,53,11.20
2018,06,10,00,54,11.20
2018,06,10,00,55,11.20
2018,06,10,00,56,11.20
2018,06,10,00,57,11.10
2018,06,10,00,58,11.10
2018,06,10,00,59,11.10
2018,06,10,01,00,11.10
2018,06,10,01,01,11.10
2018,06,10,01,02,11.10
2018,06,10,01,03,11.10
2018,06,10,01,04,11.10
2018,06,10,01,05,11.10
2018,06,10,01,06,11.00
2018,06,10,01,07,11.00
2018,06,10,01,08,11.00
2018,06,10,01,09,11.00
2018,06,10,01,10,11.00
2018,06,10,01,11,11.00
2018,06,10,01,12,11.10
2018,06,10,01,13,11.10
2018,06,10,01,14,11.10
2018,06,10,01,15,11.10
2018,06,10,01,16,11.10
2018,06,10,01,17,11.10
2018,06,10,01,18,11.10
2018,06,10,01,19,11.10
2018,06,10,01,20,11.10
2018,06,10,01,21,11.10
2018,06,10,01,22,11.10
2018,06,10,01,23,11.10
2018,06,10,01,24,11.10
2018,06,10,01,25,11.10
2018,06,10,01,26,11.10
2018,06,10,01,27,11.10
2018,06,10,01,28,11.10
2018,06,10,01,29,11.10
2018,06,10,01,30,11.10
2018,06,10,01,31,11.10
2018,06,10,01,32,11.10
2018,06,10,01,33,11.10
2018,06,10,01,34,11.10
2018,06,10,01,35,11.10
2018,06,10,01,36,11.10
2018,06,10,01,37,11.10
2018,06,10,01,38,11.10
2018,06,10,01,39,11.10
2018,06,10,01,40,11.10
2018,06,10,01,41,11.10
2018,06,10,01,42,11.10
2018,06,10,01,43,11.10
2018,06,10,01,44,11.10
2018,06,10,01,45,11.10
2018,06,10,01,46,11.10
2018,06,10,01,47,11.10
2018,06,10,01,48,11.10
2018,06,10,01,49,11.10
2018,06,10,01,50,11.10
2018,06,10,01,51,11.10
2018,06,10,01,52,11.10
2018,06,10,01,53,11.10
2018,06,10,01,54,11.10
2018,06,10,01,55,11.00
2018,06,10,01,56,11.00
2018,06,10,01,57,11.00
2018,06,10,01,58,11.00
2018,06,10,01,59,11.00
2018,06,10,02,00,11.00
2018,06,10,02,01,10.90
2018,06,10,02,02,10.90
2018,06,10,02,03,10.90
2018,06,10,02,04,10.90
2018,06,10,02,05,10.90
2018,06,10,02,06,10.90
2018,06,10,02,07,10.90
2018,06,10,02,08,10.90
2018,06,10,02,09,10.90
2018,06,10,02,10,10.90
2018,06,10,02,11,10.90
2018,06,10,02,12,10.90
2018,06,10,02,13,10.90
2018,06,10,02,14,10.90
2018,06,10,02,15,10.90
2018,06,10,02,16,10.90
2018,06,10,02,17,10.90
2018,06,10,02,18,10.90
2018,06,10,02,19,10.80
2018,06,10,02,20,10.90
2018,06,10,02,21,10.90
2018,06,10,02,22,10.90
2018,06,10,02,23,10.90
2018,06,10,02,24,10.90
2018,06,10,02,25,10.90
2018,06,10,02,26,10.90
2018,06,10,02,27,10.90
2018,06,10,02,28,10.80
2018,06,10,02,29,10.80
2018,06,10,02,30,10.80
2018,06,10,02,31,10.80
2018,06,10,02,32,10.80
2018,06,10,02,33,10.80
2018,06,10,02,34,10.80
2018,06,10,02,35,10.80
2018,06,10,02,36,10.80
2018,06,10,02,37,10.80
2018,06,10,02,38,10.80
2018,06,10,02,39,10.80
2018,06,10,02,40,10.80
2018,06,10,02,41,10.80
2018,06,10,02,42,10.80
2018,06,10,02,43,10.80
2018,06,10,02,44,10.80
2018,06,10,02,45,10.80
2018,06,10,02,46,10.80
2018,06,10,02,47,10.80
2018,06,10,02,48,10.80
2018,06,10,02,49,10.80
2018,06,10,02,50,10.80
2018,06,10,02,51,10.70
2018,06,10,02,52,10.70
2018,06,10,02,53,10.70
2018,06,10,02,54,10.70
2018,06,10,02,55,10.70
2018,06,10,02,56,10.70
2018,06,10,02,57,10.70
2018,06,10,02,58,10.70
2018,06,10,02,59,10.70
2018,06,10,03,00,10.70
2018,06,10,03,01,10.70
2018,06,10,03,02,10.70
2018,06,10,03,03,10.60
2018,06,10,03,04,10.60
2018,06,10,03,05,10.60
2018,06,10,03,06,10.60
2018,06,10,03,07,10.60
2018,06,10,03,08,10.60
2018,06,10,03,09,10.60
2018,06,10,03,10,10.60
2018,06,10,03,11,10.60
2018,06,10,03,12,10.60
2018,06,10,03,13,10.50
2018,06,10,03,14,10.50
2018,06,10,03,15,10.50
2018,06,10,03,16,10.40
2018,06,10,03,17,10.40
2018,06,10,03,18,10.40
2018,06,10,03,19,10.40
2018,06,10,03,20,10.40
2018,06,10,03,21,10.40
2018,06,10,03,22,10.40
2018,06,10,03,23,10.40
2018,06,10,03,24,10.40
2018,06,10,03,25,10.30
2018,06,10,03,26,10.30
2018,06,10,03,27,10.30
2018,06,10,03,28,10.20
2018,06,10,03,29,10.20
2018,06,10,03,30,10.20
2018,06,10,03,31,10.10
2018,06,10,03,32,10.10
2018,06,10,03,33,10.10
2018,06,10,03,34,10.00
2018,06,10,03,35,10.00
2018,06,10,03,36,9.90
2018,06,10,03,37,9.90
2018,06,10,03,38,9.90
2018,06,10,03,39,9.90
2018,06,10,03,40,9.80
2018,06,10,03,41,9.80
2018,06,10,03,42,9.80
2018,06,10,03,43,9.80
2018,06,10,03,44,9.80
2018,06,10,03,45,9.80
2018,06,10,03,46,9.70
2018,06,10,03,47,9.70
2018,06,10,03,48,9.70
2018,06,10,03,49,9.70
2018,06,10,03,50,9.70
2018,06,10,03,51,9.60
2018,06,10,03,52,9.60
2018,06,10,03,53,9.60
2018,06,10,03,54,9.60
2018,06,10,03,55,9.60
2018,06,10,03,56,9.60
2018,06,10,03,57,9.60
2018,06,10,03,58,9.60
2018,06,10,03,59,9.50
2018,06,10,04,00,9.50
2018,06,10,04,01,9.50
2018,06,10,04,02,9.50
2018,06,10,04,03,9.40
2018,06,10,04,04,9.40
2018,06,10,04,05,9.40
2018,06,10,04,06,9.30
2018,06,10,04,07,9.30
2018,06,10,04,08,9.30
2018,06,10,04,09,9.30
2018,06,10,04,10,9.30
2018,06,10,04,11,9.20
2018,06,10,04,12,9.20
2018,06,10,04,13,9.20
2018,06,10,04,14,9.20
2018,06,10,04,15,9.30
2018,06,10,04,16,9.30
2018,06,10,04,17,9.30
2018,06,10,04,18,9.30
2018,06,10,04,19,9.30
2018,06,10,04,20,9.30
2018,06,10,04,21,9.30
2018,06,10,04,22,9.40
2018,06,10,04,23,9.40
2018,06,10,04,24,9.40
2018,06,10,04,25,9.40
2018,06,10,04,26,9.50
2018,06,10,04,27,9.60
2018,06,10,04,28,9.60
2018,06,10,04,29,9.70
2018,06,10,04,30,9.70
2018,06,10,04,31,9.80
2018,06,10,04,32,9.80
2018,06,10,04,33,9.80
2018,06,10,04,34,9.80
2018,06,10,04,35,9.90
2018,06,10,04,36,9.90
2018,06,10,04,37,9.90
2018,06,10,04,38,10.00
2018,06,10,04,39,10.00
2018,06,10,04,40,10.00
2018,06,10,04,41,10.10
2018,06,10,04,42,10.10
2018,06,10,04,43,10.10
2018,06,10,04,44,10.10
2018,06,10,04,45,10.10
2018,06,10,04,46,10.20
2018,06,10,04,47,10.20
2018,06,10,04,48,10.20
2018,06,10,04,49,10.20
2018,06,10,04,50,10.20
2018,06,10,04,51,10.20
2018,06,10,04,52,10.30
2018,06,10,04,53,10.30
2018,06,10,04,54,10.30
2018,06,10,04,55,10.30
2018,06,10,04,56,10.30
2018,06,10,04,57,10.30
2018,06,10,04,58,10.30
2018,06,10,04,59,10.30
2018,06,10,05,00,10.30
2018,06,10,05,01,10.30
2018,06,10,05,02,10.30
2018,06,10,05,03,10.30
2018,06,10,05,04,10.30
2018,06,10,05,05,10.20
2018,06,10,05,06,10.20
2018,06,10,05,07,10.20
2018,06,10,05,08,10.20
2018,06,10,05,09,10.10
2018,06,10,05,10,10.00
2018,06,10,05,11,10.00
2018,06,10,05,12,9.90
2018,06,10,05,13,9.90
2018,06,10,05,14,9.90
2018,06,10,05,15,9.80
2018,06,10,05,16,9.80
2018,06,10,05,17,9.80
2018,06,10,05,18,9.70
2018,06,10,05,19,9.70
2018,06,10,05,20,9.70
2018,06,10,05,21,9.70
2018,06,10,05,22,9.60
2018,06,10,05,23,9.60
2018,06,10,05,24,9.60
2018,06,10,05,25,9.60
2018,06,10,05,26,9.60
2018,06,10,05,27,9.60
2018,06,10,05,28,9.60
2018,06,10,05,29,9.60
2018,06,10,05,30,9.60
2018,06,10,05,31,9.50
2018,06,10,05,32,9.50
2018,06,10,05,33,9.50
2018,06,10,05,34,9.50
2018,06,10,05,35,9.50
2018,06,10,05,36,9.50
2018,06,10,05,37,9.50
2018,06,10,05,38,9.50
2018,06,10,05,39,9.50
2018,06,10,05,40,9.50
2018,06,10,05,41,9.50
2018,06,10,05,42,9.50
2018,06,10,05,43,9.50
2018,06,10,05,44,9.50
2018,06,10,05,45,9.50
2018,06,10,05,46,9.50
2018,06,10,05,47,9.50
2018,06,10,05,48,9.40
2018,06,10,05,49,9.40
2018,06,10,05,50,9.40
2018,06,10,05,51,9.40
2018,06,10,05,52,9.50
2018,06,10,05,53,9.50
2018,06,10,05,54,9.60
2018,06,10,05,55,9.60
2018,06,10,05,56,9.60
2018,06,10,05,57,9.70
2018,06,10,05,58,9.70
2018,06,10,05,59,9.70
2018,06,10,06,00,9.80
2018,06,10,06,01,9.80
2018,06,10,06,02,9.80
2018,06,10,06,03,9.90
2018,06,10,06,04,9.90
2018,06,10,06,05,9.90
2018,06,10,06,06,10.00
2018,06,10,06,07,10.00
2018,06,10,06,08,10.00
2018,06,10,06,09,10.10
2018,06,10,06,10,10.10
2018,06,10,06,11,10.10
2018,06,10,06,12,10.10
2018,06,10,06,13,10.10
2018,06,10,06,14,10.10
2018,06,10,06,15,10.10
2018,06,10,06,16,10.10
2018,06,10,06,17,10.20
2018,06,10,06,18,10.20
2018,06,10,06,19,10.20
2018,06,10,06,20,10.20
2018,06,10,06,21,10.20
2018,06,10,06,22,10.20
2018,06,10,06,23,10.20
2018,06,10,06,24,10.20
2018,06,10,06,25,10.30
2018,06,10,06,26,10.30
2018,06,10,06,27,10.30
2018,06,10,06,28,10.30
2018,06,10,06,29,10.40
2018,06,10,06,30,10.40
2018,06,10,06,31,10.40
2018,06,10,06,32,10.40
2018,06,10,06,33,10.40
2018,06,10,06,34,10.50
2018,06,10,06,35,10.50
2018,06,10,06,36,10.50
2018,06,10,06,37,10.50
2018,06,10,06,38,10.60
2018,06,10,06,39,10.60
2018,06,10,06,40,10.60
2018,06,10,06,41,10.70
2018,06,10,06,42,10.70
2018,06,10,06,43,10.70
2018,06,10,06,44,10.80
2018,06,10,06,45,10.80
2018,06,10,06,46,10.80
2018,06,10,06,47,10.80
2018,06,10,06,48,10.90
2018,06,10,06,49,10.90
2018,06,10,06,50,10.90
2018,06,10,06,51,10.90
2018,06,10,06,52,11.00
2018,06,10,06,53,11.00
2018,06,10,06,54,11.00
2018,06,10,06,55,11.10
2018,06,10,06,56,11.10
2018,06,10,06,57,11.20
2018,06,10,06,58,11.20
2018,06,10,06,59,11.20
2018,06,10,07,00,11.30
2018,06,10,07,01,11.30
2018,06,10,07,02,11.30
2018,06,10,07,03,11.40
2018,06,10,07,04,11.40
2018,06,10,07,05,11.40
2018,06,10,07,06,11.40
2018,06,10,07,07,11.50
2018,06,10,07,08,11.50
2018,06,10,07,09,11.50
2018,06,10,07,10,11.60
2018,06,10,07,11,11.60
2018,06,10,07,12,11.60
2018,06,10,07,13,11.60
2018,06,10,07,14,11.70
2018,06,10,07,15,11.70
2018,06,10,07,16,11.70
2018,06,10,07,17,11.70
2018,06,10,07,18,11.70
2018,06,10,07,19,11.80
2018,06,10,07,20,11.80
2018,06,10,07,21,11.80
2018,06,10,07,22,11.80
2018,06,10,07,23,11.80
2018,06,10,07,24,11.80
2018,06,10,07,25,11.80
2018,06,10,07,26,11.80
2018,06,10,07,27,11.80
2018,06,10,07,28,11.80
2018,06,10,07,29,11.80
2018,06,10,07,30,11.80
2018,06,10,07,31,11.80
2018,06,10,07,32,11.80
2018,06,10,07,33,11.80
2018,06,10,07,34,11.70
2018,06,10,07,35,11.70
2018,06,10,07,36,11.70
2018,06,10,07,37,11.70
2018,06,10,07,38,11.70
2018,06,10,07,39,11.70
2018,06,10,07,40,11.70
2018,06,10,07,41,11.70
2018,06,10,07,42,11.70
2018,06,10,07,43,11.70
2018,06,10,07,44,11.70
2018,06,10,07,45,11.70
2018,06,10,07,46,11.70
2018,06,10,07,47,11.70
2018,06,10,07,48,11.70
2018,06,10,07,49,11.70
2018,06,10,07,50,11.70
2018,06,10,07,51,11.70
2018,06,10,07,52,11.70
2018,06,10,07,53,11.70
2018,06,10,07,54,11.70
2018,06,10,07,55,11.80
2018,06,10,07,56,11.80
2018,06,10,07,57,11.80
2018,06,10,07,58,11.80
2018,06,10,07,59,11.80
2018,06,10,08,00,11.80
2018,06,10,08,01,11.80
2018,06,10,08,02,11.90
2018,06,10,08,03,11.90
2018,06,10,08,04,11.90
2018,06,10,08,05,11.90
2018,06,10,08,06,11.90
2018,06,10,08,07,11.90
2018,06,10,08,08,11.90
2018,06,10,08,09,11.90
2018,06,10,08,10,11.90
2018,06,10,08,11,11.90
2018,06,10,08,12,11.90
2018,06,10,08,13,11.90
2018,06,10,08,14,11.90
2018,06,10,08,15,11.90
2018,06,10,08,16,11.80
2018,06,10,08,17,11.80
2018,06,10,08,18,11.80
2018,06,10,08,19,11.80
2018,06,10,08,20,11.80
2018,06,10,08,21,11.80
2018,06,10,08,22,11.70
2018,06,10,08,23,11.70
2018,06,10,08,24,11.70
2018,06,10,08,25,11.70
2018,06,10,08,26,11.70
2018,06,10,08,27,11.70
2018,06,10,08,28,11.70
2018,06,10,08,29,11.60
2018,06,10,08,30,11.60
2018,06,10,08,31,11.70
2018,06,10,08,32,11.70
2018,06,10,08,33,11.70
2018,06,10,08,34,11.70
2018,06,10,08,35,11.70
2018,06,10,08,36,11.80
2018,06,10,08,37,11.80
2018,06,10,08,38,11.90
2018,06,10,08,39,11.90
2018,06,10,08,40,12.00
2018,06,10,08,41,12.00
2018,06,10,08,42,12.10
2018,06,10,08,43,12.10
2018,06,10,08,44,12.20
2018,06,10,08,45,12.20
2018,06,10,08,46,12.30
2018,06,10,08,47,12.30
2018,06,10,08,48,12.30
2018,06,10,08,49,12.30
2018,06,10,08,50,12.30
2018,06,10,08,51,12.40
2018,06,10,08,52,12.40
2018,06,10,08,53,12.40
2018,06,10,08,54,12.50
2018,06,10,08,55,12.50
2018,06,10,08,56,12.60
2018,06,10,08,57,12.60
2018,06,10,08,58,12.70
2018,06,10,08,59,12.70
2018,06,10,09,00,12.80
2018,06,10,09,01,12.80
2018,06,10,09,02,12.90
2018,06,10,09,03,12.90
2018,06,10,09,04,13.00
2018,06,10,09,05,13.10
2018,06,10,09,06,13.20
2018,06,10,09,07,13.30
2018,06,10,09,08,13.30
2018,06,10,09,09,13.40
2018,06,10,09,10,13.50
2018,06,10,09,11,13.50
2018,06,10,09,12,13.60
2018,06,10,09,13,13.60
2018,06,10,09,14,13.70
2018,06,10,09,15,13.80
2018,06,10,09,16,13.80
2018,06,10,09,17,13.80
2018,06,10,09,18,13.90
2018,06,10,09,19,13.90
2018,06,10,09,20,13.90
2018,06,10,09,21,14.00
2018,06,10,09,22,14.10
2018,06,10,09,23,14.10
2018,06,10,09,24,14.20
2018,06,10,09,25,14.20
2018,06,10,09,26,14.20
2018,06,10,09,27,14.30
2018,06,10,09,28,14.30
2018,06,10,09,29,14.30
2018,06,10,09,30,14.30
2018,06,10,09,31,14.40
2018,06,10,09,32,14.30
2018,06,10,09,33,14.30
2018,06,10,09,34,14.30
2018,06,10,09,35,14.30
2018,06,10,09,36,14.20
2018,06,10,09,37,14.10
2018,06,10,09,38,14.00
2018,06,10,09,39,14.00
2018,06,10,09,40,13.90
2018,06,10,09,41,13.80
2018,06,10,09,42,13.70
2018,06,10,09,43,13.60
2018,06,10,09,44,13.50
2018,06,10,09,45,13.40
2018,06,10,09,46,13.40
2018,06,10,09,47,13.40
2018,06,10,09,48,13.30
2018,06,10,09,49,13.30
2018,06,10,09,50,13.30
2018,06,10,09,51,13.20
2018,06,10,09,52,13.20
2018,06,10,09,53,13.20
2018,06,10,09,54,13.20
2018,06,10,09,55,13.30
2018,06,10,09,56,13.40
2018,06,10,09,57,13.50
2018,06,10,09,58,13.60
2018,06,10,09,59,13.70
2018,06,10,10,00,13.80
2018,06,10,10,01,13.80
2018,06,10,10,02,13.80
2018,06,10,10,03,13.80
2018,06,10,10,04,13.70
2018,06,10,10,05,13.70
2018,06,10,10,06,13.70
2018,06,10,10,07,13.70
2018,06,10,10,08,13.70
2018,06,10,10,09,13.80
2018,06,10,10,10,13.80
2018,06,10,10,11,13.80
2018,06,10,10,12,13.80
2018,06,10,10,13,13.80
2018,06,10,10,14,13.80
2018,06,10,10,15,13.80
2018,06,10,10,16,13.70
2018,06,10,10,17,13.60
2018,06,10,10,18,13.50
2018,06,10,10,19,13.40
2018,06,10,10,20,13.40
2018,06,10,10,21,13.40
2018,06,10,10,22,13.40
2018,06,10,10,23,13.30
2018,06,10,10,24,13.30
2018,06,10,10,25,13.30
2018,06,10,10,26,13.30
2018,06,10,10,27,13.30
2018,06,10,10,28,13.30
2018,06,10,10,29,13.30
2018,06,10,10,30,13.30
2018,06,10,10,31,13.30
2018,06,10,10,32,13.30
2018,06,10,10,33,13.30
2018,06,10,10,34,13.30
2018,06,10,10,35,13.30
2018,06,10,10,36,13.30
2018,06,10,10,37,13.30
2018,06,10,10,38,13.30
2018,06,10,10,39,13.20
2018,06,10,10,40,13.20
2018,06,10,10,41,13.10
2018,06,10,10,42,13.10
2018,06,10,10,43,13.00
2018,06,10,10,44,13.00
2018,06,10,10,45,12.90
2018,06,10,10,46,12.80
2018,06,10,10,47,12.80
2018,06,10,10,48,12.70
2018,06,10,10,49,12.70
2018,06,10,10,50,12.60
2018,06,10,10,51,12.60
2018,06,10,10,52,12.60
2018,06,10,10,53,12.60
2018,06,10,10,54,12.50
2018,06,10,10,55,12.60
2018,06,10,10,56,12.60
2018,06,10,10,57,12.60
2018,06,10,10,58,12.70
2018,06,10,10,59,12.70
2018,06,10,11,00,12.70
2018,06,10,11,01,12.80
2018,06,10,11,02,12.80
2018,06,10,11,03,12.80
2018,06,10,11,04,12.80
2018,06,10,11,05,12.80
2018,06,10,11,06,12.90
2018,06,10,11,07,12.90
2018,06,10,11,08,12.90
2018,06,10,11,09,12.90
2018,06,10,11,10,13.00
2018,06,10,11,11,13.00
2018,06,10,11,12,13.10
2018,06,10,11,13,13.10
2018,06,10,11,14,13.10
2018,06,10,11,15,13.10
2018,06,10,11,16,13.10
2018,06,10,11,17,13.10
2018,06,10,11,18,13.10
2018,06,10,11,19,13.10
2018,06,10,11,20,13.10
2018,06,10,11,21,13.10
2018,06,10,11,22,13.10
2018,06,10,11,23,13.10
2018,06,10,11,24,13.10
2018,06,10,11,25,13.20
2018,06,10,11,26,13.20
2018,06,10,11,27,13.20
2018,06,10,11,28,13.20
2018,06,10,11,29,13.20
2018,06,10,11,30,13.20
2018,06,10,11,31,13.30
2018,06,10,11,32,13.30
2018,06,10,11,33,13.40
2018,06,10,11,34,13.40
2018,06,10,11,35,13.50
2018,06,10,11,36,13.60
2018,06,10,11,37,13.70
2018,06,10,11,38,13.80
2018,06,10,11,39,13.80
2018,06,10,11,40,13.90
2018,06,10,11,41,14.00
2018,06,10,11,42,14.10
2018,06,10,11,43,14.20
2018,06,10,11,44,14.20
2018,06,10,11,45,14.20
2018,06,10,11,46,14.30
2018,06,10,11,47,14.30
2018,06,10,11,48,14.30
2018,06,10,11,49,14.30
2018,06,10,11,50,14.30
2018,06,10,11,51,14.30
2018,06,10,11,52,14.30
2018,06,10,11,53,14.40
2018,06,10,11,54,14.40
2018,06,10,11,55,14.40
2018,06,10,11,56,14.40
2018,06,10,11,57,14.40
2018,06,10,11,58,14.40
2018,06,10,11,59,14.40
2018,06,10,12,00,14.40
2018,06,10,12,01,14.40
2018,06,10,12,02,14.50
2018,06,10,12,03,14.60
2018,06,10,12,04,14.70
2018,06,10,12,05,14.70
2018,06,10,12,06,14.80
2018,06,10,12,07,14.80
2018,06,10,12,08,14.80
2018,06,10,12,09,14.80
2018,06,10,12,10,14.80
2018,06,10,12,11,14.80
2018,06,10,12,12,14.80
2018,06,10,12,13,14.80
2018,06,10,12,14,14.80
2018,06,10,12,15,14.80
2018,06,10,12,16,14.80
2018,06,10,12,17,14.80
2018,06,10,12,18,14.90
2018,06,10,12,19,14.90
2018,06,10,12,20,14.90
2018,06,10,12,21,14.90
2018,06,10,12,22,14.90
2018,06,10,12,23,14.90
2018,06,10,12,24,14.80
2018,06,10,12,25,14.90
2018,06,10,12,26,14.80
2018,06,10,12,27,14.90
2018,06,10,12,28,14.90
2018,06,10,12,29,14.90
2018,06,10,12,30,14.90
2018,06,10,12,31,15.00
2018,06,10,12,32,15.00
2018,06,10,12,33,15.10
2018,06,10,12,34,15.10
2018,06,10,12,35,15.20
2018,06,10,12,36,15.20
2018,06,10,12,37,15.30
2018,06,10,12,38,15.30
2018,06,10,12,39,15.30
2018,06,10,12,40,15.30
2018,06,10,12,41,15.30
2018,06,10,12,42,15.30
2018,06,10,12,43,15.30
2018,06,10,12,44,15.30
2018,06,10,12,45,15.20
2018,06,10,12,46,15.10
2018,06,10,12,47,15.10
2018,06,10,12,48,15.10
2018,06,10,12,49,15.10
2018,06,10,12,50,15.10
2018,06,10,12,51,15.00
2018,06,10,12,52,14.90
2018,06,10,12,53,14.90
2018,06,10,12,54,14.90
2018,06,10,12,55,14.90
2018,06,10,12,56,14.80
2018,06,10,12,57,14.90
2018,06,10,12,58,14.90
2018,06,10,12,59,14.90
2018,06,10,13,00,14.90
2018,06,10,13,01,15.00
2018,06,10,13,02,15.00
2018,06,10,13,03,15.10
2018,06,10,13,04,15.20
2018,06,10,13,05,15.20
2018,06,10,13,06,15.30
2018,06,10,13,07,15.30
2018,06,10,13,08,15.40
2018,06,10,13,09,15.30
2018,06,10,13,10,15.30
2018,06,10,13,11,15.30
2018,06,10,13,12,15.30
2018,06,10,13,13,15.30
2018,06,10,13,14,15.30
2018,06,10,13,15,15.30
2018,06,10,13,16,15.30
2018,06,10,13,17,15.30
2018,06,10,13,18,15.20
2018,06,10,13,19,15.20
2018,06,10,13,20,15.20
2018,06,10,13,21,15.20
2018,06,10,13,22,15.10
2018,06,10,13,23,15.10
2018,06,10,13,24,15.10
2018,06,10,13,25,15.10
2018,06,10,13,26,15.10
2018,06,10,13,27,15.20
2018,06,10,13,28,15.20
2018,06,10,13,29,15.20
2018,06,10,13,30,15.20
2018,06,10,13,31,15.20
2018,06,10,13,32,15.20
2018,06,10,13,33,15.20
2018,06,10,13,34,15.20
2018,06,10,13,35,15.30
2018,06,10,13,36,15.30
2018,06,10,13,37,15.40
2018,06,10,13,38,15.40
2018,06,10,13,39,15.50
2018,06,10,13,40,15.50
2018,06,10,13,41,15.60
2018,06,10,13,42,15.60
2018,06,10,13,43,15.60
2018,06,10,13,44,15.60
2018,06,10,13,45,15.60
2018,06,10,13,46,15.60
2018,06,10,13,47,15.60
2018,06,10,13,48,15.50
2018,06,10,13,49,15.50
2018,06,10,13,50,15.40
2018,06,10,13,51,15.40
2018,06,10,13,52,15.40
2018,06,10,13,53,15.30
2018,06,10,13,54,15.30
2018,06,10,13,55,15.30
2018,06,10,13,56,15.20
2018,06,10,13,57,15.30
2018,06,10,13,58,15.30
2018,06,10,13,59,15.30
2018,06,10,14,00,15.30
2018,06,10,14,01,15.30
2018,06,10,14,02,15.20
2018,06,10,14,03,15.10
2018,06,10,14,04,15.10
2018,06,10,14,05,15.00
2018,06,10,14,06,14.90
2018,06,10,14,07,14.90
2018,06,10,14,08,14.90
2018,06,10,14,09,14.80
2018,06,10,14,10,14.80
2018,06,10,14,11,14.80
2018,06,10,14,12,14.80
2018,06,10,14,13,14.70
2018,06,10,14,14,14.70
2018,06,10,14,15,14.60
2018,06,10,14,16,14.50
2018,06,10,14,17,14.40
2018,06,10,14,18,14.30
2018,06,10,14,19,14.20
2018,06,10,14,20,14.20
2018,06,10,14,21,14.10
2018,06,10,14,22,14.00
2018,06,10,14,23,14.00
2018,06,10,14,24,13.90
2018,06,10,14,25,13.90
2018,06,10,14,26,13.90
2018,06,10,14,27,13.90
2018,06,10,14,28,13.90
2018,06,10,14,29,14.00
2018,06,10,14,30,14.00
2018,06,10,14,31,14.00
2018,06,10,14,32,14.10
2018,06,10,14,33,14.10
2018,06,10,14,34,14.20
2018,06,10,14,35,14.30
2018,06,10,14,36,14.30
2018,06,10,14,37,14.40
2018,06,10,14,38,14.40
2018,06,10,14,39,14.40
2018,06,10,14,40,14.50
2018,06,10,14,41,14.60
2018,06,10,14,42,14.60
2018,06,10,14,43,14.60
2018,06,10,14,44,14.70
2018,06,10,14,45,14.70
2018,06,10,14,46,14.70
2018,06,10,14,47,14.70
2018,06,10,14,48,14.70
2018,06,10,14,49,14.70
2018,06,10,14,50,14.70
2018,06,10,14,51,14.60
2018,06,10,14,52,14.60
2018,06,10,14,53,14.60
2018,06,10,14,54,14.50
2018,06,10,14,55,14.50
2018,06,10,14,56,14.50
2018,06,10,14,57,14.60
2018,06,10,14,58,14.60
2018,06,10,14,59,14.60
2018,06,10,15,00,14.70
2018,06,10,15,01,14.70
2018,06,10,15,02,14.80
2018,06,10,15,03,14.80
2018,06,10,15,04,14.80
2018,06,10,15,05,14.80
2018,06,10,15,06,14.70
2018,06,10,15,07,14.70
2018,06,10,15,08,14.70
2018,06,10,15,09,14.70
2018,06,10,15,10,14.70
2018,06,10,15,11,14.70
2018,06,10,15,12,14.80
2018,06,10,15,13,14.90
2018,06,10,15,14,14.90
2018,06,10,15,15,15.00
2018,06,10,15,16,15.00
2018,06,10,15,17,15.10
2018,06,10,15,18,15.10
2018,06,10,15,19,15.20
2018,06,10,15,20,15.20
2018,06,10,15,21,15.20
2018,06,10,15,22,15.20
2018,06,10,15,23,15.20
2018,06,10,15,24,15.20
2018,06,10,15,25,15.20
2018,06,10,15,26,15.20
2018,06,10,15,27,15.20
2018,06,10,15,28,15.20
2018,06,10,15,29,15.20
2018,06,10,15,30,15.10
2018,06,10,15,31,15.10
2018,06,10,15,32,15.00
2018,06,10,15,33,15.00
2018,06,10,15,34,15.00
2018,06,10,15,35,15.00
2018,06,10,15,36,15.10
2018,06,10,15,37,15.10
2018,06,10,15,38,15.10
2018,06,10,15,39,15.10
2018,06,10,15,40,15.20
2018,06,10,15,41,15.20
2018,06,10,15,42,15.20
2018,06,10,15,43,15.20
2018,06,10,15,44,15.30
2018,06,10,15,45,15.40
2018,06,10,15,46,15.40
2018,06,10,15,47,15.40
2018,06,10,15,48,15.50
2018,06,10,15,49,15.50
2018,06,10,15,50,15.60
2018,06,10,15,51,15.60
2018,06,10,15,52,15.70
2018,06,10,15,53,15.70
2018,06,10,15,54,15.70
2018,06,10,15,55,15.60
2018,06,10,15,56,15.60
2018,06,10,15,57,15.50
2018,06,10,15,58,15.50
2018,06,10,15,59,15.50
2018,06,10,16,00,15.40
2018,06,10,16,01,15.40
2018,06,10,16,02,15.40
2018,06,10,16,03,15.50
2018,06,10,16,04,15.50
2018,06,10,16,05,15.50
2018,06,10,16,06,15.60
2018,06,10,16,07,15.60
2018,06,10,16,08,15.60
2018,06,10,16,09,15.70
2018,06,10,16,10,15.70
2018,06,10,16,11,15.80
2018,06,10,16,12,15.90
2018,06,10,16,13,15.90
2018,06,10,16,14,15.90
2018,06,10,16,15,15.90
2018,06,10,16,16,15.80
2018,06,10,16,17,15.80
2018,06,10,16,18,15.80
2018,06,10,16,19,15.70
2018,06,10,16,20,15.70
2018,06,10,16,21,15.70
2018,06,10,16,22,15.60
2018,06,10,16,23,15.50
2018,06,10,16,24,15.40
2018,06,10,16,25,15.30
2018,06,10,16,26,15.20
2018,06,10,16,27,15.20
2018,06,10,16,28,15.10
2018,06,10,16,29,15.00
2018,06,10,16,30,14.90
2018,06,10,16,31,14.80
2018,06,10,16,32,14.80
2018,06,10,16,33,14.70
2018,06,10,16,34,14.60
2018,06,10,16,35,14.50
2018,06,10,16,36,14.40
2018,06,10,16,37,14.40
2018,06,10,16,38,14.30
2018,06,10,16,39,14.30
2018,06,10,16,40,14.30
2018,06,10,16,41,14.40
2018,06,10,16,42,14.40
2018,06,10,16,43,14.50
2018,06,10,16,44,14.50
2018,06,10,16,45,14.50
2018,06,10,16,46,14.60
2018,06,10,16,47,14.60
2018,06,10,16,48,14.60
2018,06,10,16,49,14.70
2018,06,10,16,50,14.70
2018,06,10,16,51,14.80
2018,06,10,16,52,14.90
2018,06,10,16,53,14.90
2018,06,10,16,54,15.10
2018,06,10,16,55,15.20
2018,06,10,16,56,15.30
2018,06,10,16,57,15.40
2018,06,10,16,58,15.50
2018,06,10,16,59,15.50
2018,06,10,17,00,15.60
2018,06,10,17,01,15.60
2018,06,10,17,02,15.60
2018,06,10,17,03,15.60
2018,06,10,17,04,15.50
2018,06,10,17,05,15.50
2018,06,10,17,06,15.40
2018,06,10,17,07,15.40
2018,06,10,17,08,15.30
2018,06,10,17,09,15.30
2018,06,10,17,10,15.20
2018,06,10,17,11,15.20
2018,06,10,17,12,15.20
2018,06,10,17,13,15.20
2018,06,10,17,14,15.10
2018,06,10,17,15,15.10
2018,06,10,17,16,15.10
2018,06,10,17,17,15.00
2018,06,10,17,18,15.00
2018,06,10,17,19,14.90
2018,06,10,17,20,14.80
2018,06,10,17,21,14.70
2018,06,10,17,22,14.70
2018,06,10,17,23,14.60
2018,06,10,17,24,14.60